When you browse on this site, cookies collect data to enhance your experience and personalize the content and advertising you see.
Visit our Privacy Policy to learn more. By continuing to use the site, you agree to this use of cookies and data.
  • In Romania
  • List of Countries
  • For 7 days
  • Water Temperature
  • Weather Map
  • Weather Widgets
  • user-avatar
    Login

    Hourly Weather Franceville

    Today, 26 January, Sunday

    Time Temperature Precipitation Wind Pressure Humidity
    00:00 +26°C° 0 mm 0 mps 731 mmHg 63%
    01:00 +25°C° 0 mm 0 mps 731 mmHg 64%
    02:00 +25°C° 0 mm 0 mps 731 mmHg 68%
    03:00 +24°C° 0 mm 0 mps 731 mmHg 71%
    04:00 +26°C° 0 mm 1 mps 731 mmHg 75%
    05:00 +24°C° 0 mm 0 mps 731 mmHg 76%
    06:00 +24°C° 0 mm 0 mps 732 mmHg 78%
    07:00 +25°C° 0 mm 0 mps 732 mmHg 77%
    08:00 +27°C° 0 mm 0 mps 732 mmHg 68%
    09:00 +30°C° 0 mm 0 mps 732 mmHg 58%
    10:00 +33°C° 0 mm 0 mps 733 mmHg 49%
    11:00 +36°C° 0 mm 1 mps 732 mmHg 42%
    12:00 +37°C° 0 mm 1 mps 731 mmHg 35%
    13:00 +39°C° 0 mm 1 mps 730 mmHg 28%
    14:00 +39°C° 0 mm 1 mps 730 mmHg 27%
    15:00 +39°C° 0 mm 2 mps 729 mmHg 26%
    16:00 +39°C° 0 mm 2 mps 728 mmHg 25%
    17:00 +35°C° 0 mm 1 mps 729 mmHg 29%
    18:00 +33°C° 0 mm 1 mps 729 mmHg 32%
    19:00 +30°C° 0 mm 1 mps 729 mmHg 36%
    20:00 +30°C° 0 mm 1 mps 730 mmHg 39%
    21:00 +29°C° 0 mm 1 mps 731 mmHg 42%
    22:00 +28°C° 0 mm 1 mps 731 mmHg 46%
    23:00 +27°C° 0 mm 1 mps 731 mmHg 57%

    Tomorrow, 27 January, Monday

    Time Temperature Precipitation Wind Pressure Humidity
    00:00 +27°C° 0 mm 1 mps 731 mmHg 67%
    01:00 +26°C° 0 mm 1 mps 731 mmHg 78%
    02:00 +26°C° 0 mm 1 mps 731 mmHg 81%
    03:00 +25°C° 0 mm 1 mps 731 mmHg 84%
    04:00 +25°C° 0 mm 1 mps 731 mmHg 87%
    05:00 +25°C° 0 mm 1 mps 731 mmHg 86%
    06:00 +25°C° 0 mm 1 mps 731 mmHg 86%
    07:00 +23°C° 0 mm 0 mps 731 mmHg 85%
    08:00 +28°C° 0 mm 1 mps 732 mmHg 73%
    09:00 +31°C° 0 mm 1 mps 732 mmHg 62%
    10:00 +34°C° 0 mm 1 mps 732 mmHg 50%
    11:00 +36°C° 0 mm 1 mps 732 mmHg 42%
    12:00 +39°C° 0 mm 1 mps 731 mmHg 34%
    13:00 +41°C° 0 mm 1 mps 731 mmHg 27%
    14:00 +40°C° 0 mm 1 mps 730 mmHg 28%
    15:00 +39°C° 0 mm 1 mps 729 mmHg 29%
    16:00 +37°C° 0 mm 1 mps 729 mmHg 29%
    17:00 +35°C° 0 mm 1 mps 729 mmHg 37%
    18:00 +33°C° 0 mm 1 mps 729 mmHg 44%
    19:00 +31°C° 0 mm 2 mps 729 mmHg 51%
    20:00 +30°C° 0 mm 1 mps 730 mmHg 58%
    21:00 +29°C° 0 mm 1 mps 730 mmHg 64%
    22:00 +28°C° 0 mm 1 mps 731 mmHg 70%
    23:00 +28°C° 0 mm 1 mps 731 mmHg 72%

    Day after tomorrow, 28 January, Tuesday

    Time Temperature Precipitation Wind Pressure Humidity
    00:00 +27°C° 0 mm 1 mps 731 mmHg 73%
    01:00 +27°C° 0 mm 2 mps 731 mmHg 75%
    02:00 +26°C° 0 mm 1 mps 731 mmHg 77%
    03:00 +26°C° 0 mm 1 mps 730 mmHg 78%
    04:00 +26°C° 0 mm 1 mps 730 mmHg 80%
    05:00 +26°C° 0 mm 1 mps 730 mmHg 80%
    06:00 +26°C° 0 mm 1 mps 731 mmHg 80%
    07:00 +26°C° 0 mm 1 mps 731 mmHg 80%
    08:00 +29°C° 0 mm 1 mps 731 mmHg 70%
    09:00 +31°C° 0 mm 1 mps 732 mmHg 61%
    10:00 +34°C° 0 mm 1 mps 732 mmHg 51%
    11:00 +35°C° 0 mm 1 mps 732 mmHg 44%
    12:00 +37°C° 0 mm 1 mps 731 mmHg 37%
    13:00 +40°C° 0 mm 1 mps 730 mmHg 30%
    14:00 +40°C° 0 mm 1 mps 730 mmHg 32%
    15:00 +39°C° 0 mm 1 mps 729 mmHg 34%
    16:00 +37°C° 0 mm 1 mps 728 mmHg 35%
    17:00 +34°C° 0.3 mm 1 mps 729 mmHg 47%
    18:00 +32°C° 0.3 mm 1 mps 729 mmHg 58%
    19:00 +29°C° 0.3 mm 1 mps 729 mmHg 70%
    20:00 +28°C° 2 mm 2 mps 729 mmHg 76%
    21:00 +27°C° 2 mm 2 mps 730 mmHg 83%
    22:00 +26°C° 2 mm 2 mps 731 mmHg 90%
    23:00 +26°C° 0.6 mm 1 mps 731 mmHg 90%

    29 January, Wednesday

    Time Temperature Precipitation Wind Pressure Humidity
    00:00 +26°C° 0.6 mm 1 mps 730 mmHg 90%
    01:00 +25°C° 0.6 mm 1 mps 730 mmHg 90%
    02:00 +25°C° 0 mm 1 mps 730 mmHg 91%
    03:00 +25°C° 0 mm 1 mps 730 mmHg 91%
    04:00 +23°C° 0 mm 0 mps 730 mmHg 91%
    05:00 +23°C° 0 mm 0 mps 730 mmHg 91%
    06:00 +23°C° 0 mm 0 mps 730 mmHg 91%
    07:00 +23°C° 0 mm 0 mps 731 mmHg 90%
    08:00 +28°C° 0 mm 1 mps 731 mmHg 79%
    09:00 +30°C° 0 mm 1 mps 731 mmHg 69%
    10:00 +32°C° 0 mm 1 mps 732 mmHg 58%
    11:00 +34°C° 0 mm 1 mps 731 mmHg 51%
    12:00 +36°C° 0 mm 1 mps 731 mmHg 45%
    13:00 +39°C° 0 mm 1 mps 730 mmHg 39%
    14:00 +37°C° 0 mm 1 mps 730 mmHg 38%
    15:00 +37°C° 0 mm 1 mps 729 mmHg 38%
    16:00 +38°C° 0 mm 2 mps 728 mmHg 37%
    17:00 +35°C° 0 mm 2 mps 729 mmHg 46%
    18:00 +32°C° 0 mm 1 mps 729 mmHg 55%
    19:00 +30°C° 0 mm 1 mps 729 mmHg 64%
    20:00 +29°C° 0.1 mm 1 mps 730 mmHg 69%
    21:00 +28°C° 0.1 mm 1 mps 730 mmHg 74%
    22:00 +27°C° 0.1 mm 1 mps 731 mmHg 80%
    23:00 +27°C° 0.2 mm 1 mps 731 mmHg 81%

    30 January, Thursday

    Time Temperature Precipitation Wind Pressure Humidity
    00:00 +26°C° 0.2 mm 1 mps 731 mmHg 83%
    01:00 +26°C° 0.2 mm 2 mps 731 mmHg 84%
    02:00 +26°C° 0.1 mm 1 mps 730 mmHg 86%
    03:00 +25°C° 0.1 mm 1 mps 730 mmHg 87%
    04:00 +23°C° 0.1 mm 0 mps 730 mmHg 89%
    05:00 +25°C° 0 mm 1 mps 730 mmHg 89%
    06:00 +25°C° 0 mm 1 mps 731 mmHg 88%
    07:00 +25°C° 0 mm 1 mps 732 mmHg 88%
    08:00 +27°C° 0 mm 1 mps 732 mmHg 82%
    09:00 +28°C° 0 mm 1 mps 732 mmHg 77%
    10:00 +29°C° 0 mm 2 mps 732 mmHg 71%
    11:00 +31°C° 0 mm 2 mps 732 mmHg 63%
    12:00 +34°C° 0 mm 2 mps 731 mmHg 56%
    13:00 +35°C° 0 mm 1 mps 731 mmHg 48%
    14:00 +34°C° 0.7 mm 1 mps 730 mmHg 52%
    15:00 +33°C° 0.7 mm 1 mps 730 mmHg 56%
    16:00 +32°C° 0.7 mm 1 mps 729 mmHg 60%
    17:00 +30°C° 0.8 mm 1 mps 730 mmHg 69%
    18:00 +29°C° 0.8 mm 1 mps 730 mmHg 79%
    19:00 +27°C° 0.8 mm 1 mps 730 mmHg 88%
    20:00 +26°C° 0.1 mm 1 mps 731 mmHg 89%
    21:00 +26°C° 0.1 mm 1 mps 731 mmHg 90%
    22:00 +25°C° 0.1 mm 1 mps 732 mmHg 91%
    23:00 +25°C° 0.1 mm 1 mps 731 mmHg 92%

    31 January, Friday

    Time Temperature Precipitation Wind Pressure Humidity
    00:00 +25°C° 0.1 mm 1 mps 731 mmHg 93%
    01:00 +25°C° 0.1 mm 1 mps 731 mmHg 93%
    02:00 +24°C° 0 mm 1 mps 731 mmHg 94%
    03:00 +24°C° 0 mm 1 mps 731 mmHg 94%
    04:00 +24°C° 0 mm 1 mps 730 mmHg 95%
    05:00 +24°C° 0 mm 1 mps 731 mmHg 94%
    06:00 +24°C° 0 mm 1 mps 731 mmHg 93%
    07:00 +22°C° 0 mm 0 mps 732 mmHg 93%
    08:00 +26°C° 0 mm 1 mps 732 mmHg 85%
    09:00 +28°C° 0 mm 1 mps 733 mmHg 77%
    10:00 +29°C° 0 mm 1 mps 733 mmHg 69%
    11:00 +32°C° 0 mm 1 mps 732 mmHg 59%
    12:00 +34°C° 0 mm 1 mps 732 mmHg 49%
    13:00 +37°C° 0 mm 1 mps 732 mmHg 39%
    14:00 +36°C° 0 mm 1 mps 731 mmHg 41%
    15:00 +35°C° 0 mm 1 mps 730 mmHg 44%
    16:00 +34°C° 0 mm 1 mps 729 mmHg 46%
    17:00 +32°C° 1.6 mm 1 mps 729 mmHg 60%
    18:00 +29°C° 1.6 mm 1 mps 730 mmHg 75%
    19:00 +26°C° 1.6 mm 1 mps 730 mmHg 89%
    20:00 +25°C° 1.7 mm 1 mps 730 mmHg 90%
    21:00 +25°C° 1.7 mm 1 mps 731 mmHg 92%
    22:00 +25°C° 1.7 mm 1 mps 732 mmHg 93%
    23:00 +25°C° 0.2 mm 1 mps 731 mmHg 93%
    Show more